Time+03,TemperatureF,Dew PointF,Humidity,Sea Level PressureIn,VisibilityMPH,Wind Direction,Wind SpeedMPH,Gust SpeedMPH,PrecipitationIn,Events,Conditions,WindDirDegrees,DateUTC
12:58 AM,79.5,42.1,26,29.85,6.2,NNW,4.6,-,N/A,,Clear,340,2014-04-13 21:58:00
1:58 AM,79.5,43.3,28,29.83,6.2,North,3.5,-,N/A,,Clear,10,2014-04-13 22:58:00
2:58 AM,76.8,44.6,32,29.81,6.2,Calm,Calm,-,N/A,,Clear,0,2014-04-13 23:58:00
3:58 AM,74.5,45.3,35,29.81,6.2,SSW,4.6,-,N/A,,Clear,210,2014-04-14 00:58:00
4:58 AM,73.8,44.1,34,29.83,6.2,WSW,4.6,-,N/A,,Clear,240,2014-04-14 01:58:00
5:58 AM,75.0,46.8,37,29.86,6.2,WNW,8.1,-,N/A,,Clear,300,2014-04-14 02:58:00
6:58 AM,79.2,47.3,33,29.88,5.6,NW,8.1,-,N/A,,Haze,320,2014-04-14 03:58:00
7:58 AM,83.5,59.4,44,29.88,6.2,NNW,11.5,-,N/A,,Clear,330,2014-04-14 04:58:00
8:58 AM,89.1,54.5,31,29.88,6.2,NNE,8.1,-,N/A,,Clear,20,2014-04-14 05:58:00
9:58 AM,94.5,49.5,22,29.88,6.2,NNE,4.6,-,N/A,,Clear,20,2014-04-14 06:58:00
10:58 AM,98.2,45.9,17,29.88,6.2,NW,2.3,-,N/A,,Partly Cloudy,310,2014-04-14 07:58:00
11:58 AM,100.4,43.7,14,29.86,6.2,Variable,2.3,-,N/A,,Clear,0,2014-04-14 08:58:00
12:58 PM,101.8,41.0,12,29.83,6.2,Variable,5.8,-,N/A,,Clear,0,2014-04-14 09:58:00
1:58 PM,103.3,41.2,12,29.81,6.2,WNW,2.3,-,N/A,,Clear,290,2014-04-14 10:58:00
2:58 PM,102.7,41.7,12,29.80,6.2,Variable,2.3,-,N/A,,Clear,0,2014-04-14 11:58:00
3:09 PM,104.0,46.4,14,29.79,6.2,East,17.3,27.6,N/A,,Clear,100,2014-04-14 12:09:00
3:11 PM,104.0,46.4,14,29.78,6.2,SSE,12.7,27.6,N/A,,Clear,150,2014-04-14 12:11:00
3:58 PM,100.0,47.3,17,29.78,6.2,ENE,12.7,-,N/A,,Clear,70,2014-04-14 12:58:00
4:58 PM,95.4,47.3,19,29.81,6.2,ENE,12.7,-,N/A,,Clear,60,2014-04-14 13:58:00
5:58 PM,91.6,56.1,30,29.82,6.2,NE,12.7,-,N/A,,Clear,50,2014-04-14 14:58:00
6:58 PM,89.6,53.8,29,29.82,6.2,NE,12.7,-,N/A,,Clear,40,2014-04-14 15:58:00
7:58 PM,87.8,53.1,30,29.83,6.2,NE,10.4,-,N/A,,Clear,40,2014-04-14 16:58:00
8:58 PM,86.0,55.9,36,29.83,6.2,NE,6.9,-,N/A,,Clear,50,2014-04-14 17:58:00
9:58 PM,84.0,58.8,42,29.83,6.2,ENE,5.8,-,N/A,,Clear,60,2014-04-14 18:58:00
10:58 PM,81.7,56.7,42,29.83,6.2,East,2.3,-,N/A,,Clear,90,2014-04-14 19:58:00
11:58 PM,81.5,59.7,47,29.81,6.2,ENE,3.5,-,N/A,,Clear,60,2014-04-14 20:58:00